Regional Weather Roundup
Issued by NWS

Home | Current Version | Previous Version | Text Only | Print | Product List | Glossary Off
Versions: 1 2 3 4 5 6 7 8 9 10 11 12 13 14 15 16 17 18 19 20 21 22 23 24 25 26 27 28 29 30 31 32 33 34 35 36 37 38 39 40 41 42 43 44 45 46 47 48 49 50

000
ASUS43 KMPX 242110
RWRMN
WEATHER ROUNDUP FOR MINNESOTA
NATIONAL WEATHER SERVICE TWIN CITIES/CHANHASSEN MN
400 PM CDT WED MAY 24 2017


NOTE: "FAIR" INDICATES FEW OR NO CLOUDS BELOW 12,000 FEET WITH NO
SIGNIFICANT WEATHER AND/OR OBSTRUCTIONS TO VISIBILITY. N/A MEANS
CURRENT SKY AND/OR WEATHER CONDITIONS ARE NOT AVAILABLE.

MNZ060>063-068>070-242200-
   Twin Cities Metro

CITY           SKY/WX    TMP DP  RH WIND       PRES   REMARKS
TWIN CITIES    CLOUDY    62  44  51 NE10G17   29.71F
ST PAUL        CLOUDY    61  45  55 N3        29.72F
CRYSTAL        CLOUDY    60  41  49 NE7       29.71F
BLAINE         PTSUNNY   63  45  51 NE8       29.72F
LAKEVILLE      CLOUDY    59  45  58 NE5       29.71F
EDEN PRAIRIE   CLOUDY    61  43  51 E7        29.70F
SOUTH ST PAUL  CLOUDY    60  43  54 NE6       29.71F
LAKE ELMO      CLOUDY    59  46  63 N5        29.72F
$$
MNZ001>005-007-008-013>017-022>024-027-028-242200-
   Northwest Minnesota

CITY           SKY/WX    TMP DP  RH WIND       PRES   REMARKS
BEMIDJI        PTSUNNY   61  41  47 SE12G20   29.72F
HALLOCK        MOSUNNY   70  36  28 S20G31    29.64F
ROSEAU         MOSUNNY   68  43  40 SE13G22   29.68F
WARROAD        SUNNY     66  43  42 E14       29.69F
THIEF RVR FALL MOSUNNY   64  40  41 S15G22    29.68F
CROOKSTON      CLOUDY    66  41  39 SE20      29.66F
FOSSTON        PTSUNNY   64  39  39 E12G21    29.70F
DETROIT LAKES  MOSUNNY   61  41  48 SE14      29.71S
MOORHEAD       PTSUNNY   63  41  45 SE18      29.69F
PARK RAPIDS    LGT RAIN  61  38  42 SE13      29.71F
MAHNOMEN       MOCLDY    62  39  43 SE12      29.69F
$$
MNZ006-009>011-018-025>026-242200-
   North Central Minnesota

CITY           SKY/WX    TMP DP  RH WIND       PRES   REMARKS
BAUDETTE       SUNNY     69  37  30 E12G20    29.69F
FLAG ISLAND    SUNNY     63  41  45 CALM      29.69F
INTL FALLS     SUNNY     67  34  29 SE8       29.71F
WASKISH        PTSUNNY   64  37  36 E10       29.70F
BIG FORK       PTSUNNY   63  39  42 SE10      29.74F
LONGVILLE      PTSUNNY   61  41  48 E7        29.73F
GRAND RAPIDS   CLOUDY    58  41  53 SE7       29.76F
CRANE LAKE     PTSUNNY   66  36  32 SE5       29.75F
ORR            CLOUDY    63  36  36 SE7       29.72F
COOK           CLOUDY    61  39  44 SE6       29.76S
WALKER         MOCLDY    58  41  52 E8        29.73F
$$
MNZ012-019>021-037-242200-
   Northeast Minnesota

CITY           SKY/WX    TMP DP  RH WIND       PRES   REMARKS
DULUTH         PTSUNNY   57  43  59 NE17      29.76F
ELY            CLOUDY    59  37  44 CALM      29.75F
HIBBING        PTSUNNY   61  40  45 E13G22    29.75F
EVELETH        MOSUNNY   60  29  30 E6G16     29.76F
DULUTH HARBOR  CLOUDY    48  43  81 NE12      29.78S
TWO HARBORS    SUNNY     59  46  63 E15       29.76F
SILVER BAY     SUNNY     55  43  62 E10       29.77S
GRAND MARAIS     N/A     49  36  61 NE9       29.79F
G MARAIS ARPRT SUNNY     59  28  31 E10       29.79S
$$
MNZ029>031-032-039>041-046>048-054>057-064-242200-
   West Central Minnesota

CITY           SKY/WX    TMP DP  RH WIND       PRES   REMARKS
FERGUS FALLS   PTSUNNY   61  43  51 S9        29.69S
WHEATON        CLOUDY    61  43  51 SE9       29.72S
MORRIS         CLOUDY    61  45  55 SE7       29.70F
ALEXANDRIA     PTSUNNY   59  43  55 E13       29.72F
ELBOW LAKE     CLOUDY    60  43  54 E10       29.71F
WADENA         CLOUDY    59  43  55 E9        29.71F
GLENWOOD       PTSUNNY   59  46  63 E13       29.72F
APPLETON       CLOUDY    61  43  51 SE6       29.70F
BENSON         PTSUNNY   63  43  48 SE6       29.72F
ORTONVILLE     CLOUDY    61  45  55 SE7       29.70F
MADISON        CLOUDY    63  48  59 E8        29.70F
WILLMAR        PTSUNNY   61  46  59 E8        29.72F
$$
MNZ033>034-036-042>043-049>051-058-059-242200-
   Central Minnesota

CITY           SKY/WX    TMP DP  RH WIND       PRES   REMARKS
ST CLOUD       CLOUDY    58  44  60 E5        29.72F
SAUK CENTRE    CLOUDY    57  44  62 E8        29.72F
PAYNESVILLE    CLOUDY    58  44  59 E9        29.73F
AITKIN         CLOUDY    59  43  55 E9        29.72F
PINE RIVER     MOSUNNY   61  45  55 E16       29.76F
BRAINERD       CLOUDY    60  42  51 NE10      29.73F
STAPLES        CLOUDY    59  39  47 E7        29.72F
LONG PRAIRIE   CLOUDY    55  41  58 NE3       29.73F
LITTLE FALLS   CLOUDY    57  41  54 SE8       29.73F
LITCHFIELD     CLOUDY    61  48  63 E7        29.72F
BUFFALO        CLOUDY    58  43  56 NE7       29.73F
MAPLE LAKE     CLOUDY    59  47  64 NE9       29.73F
HUTCHINSON     CLOUDY    62  48  61 NE9       29.72F
$$
MNZ037-044-045-052-053-242200-
   East Central Minnesota

CITY           SKY/WX    TMP DP  RH WIND       PRES   REMARKS
PRINCETON      CLOUDY    61  45  55 E3        29.73F
MORA           CLOUDY    59  43  55 N3        29.74F
CAMBRIDGE      CLOUDY    63  45  51 NE5       29.71F
RUSH CITY      CLOUDY    59  43  55 CALM      29.73F
MOOSE LAKE     CLOUDY    55  41  58 E6        29.74S
HINCKLEY       CLOUDY    57  45  62 NE7       29.74S
CLOQUET        CLOUDY    55  39  54 E12G17    29.76S
MCGREGOR       CLOUDY    59  43  55 E13       29.75F
$$
MNZ071>073-080-081-089-090-097-098-242200-
   Southwest Minnesota

CITY           SKY/WX    TMP DP  RH WIND       PRES   REMARKS
MONTEVIDEO     CLOUDY    63  45  51 E5        29.71F
CANBY          CLOUDY    61  46  57 CALM      29.72F
MARSHALL       CLOUDY    58  44  60 NE6       29.71F
REDWOOD FALLS  CLOUDY    60  43  53 VRB7      29.71F
OLIVIA         CLOUDY    59  43  55 E3        29.71F
PIPESTONE      CLOUDY    59  39  47 SE5       29.71F
WINDOM         MOSUNNY   57  45  62 N7        29.72F
WORTHINGTON    CLOUDY    57  44  62 N6        29.73S
JACKSON        CLOUDY    55  45  67 CALM      29.72F
TRACY          CLOUDY    60  46  60 NE6       29.72F
SLAYTON        CLOUDY    56  45  65 E6        29.73S
$$
MNZ065>067-074>077-082>085-091>093-242200-
   South Central Minnesota

CITY           SKY/WX    TMP DP  RH WIND       PRES   REMARKS
MANKATO        PTSUNNY   59  47  64 VRB5      29.71F
NEW ULM        CLOUDY    57  45  62 E6        29.71F
ST JAMES       MOSUNNY   61  46  59 NE10      29.72F
FAIRMONT       PTSUNNY   60  47  61 NE8       29.71F
GLENCOE        CLOUDY    59  49  69 NE5       29.71F
FARIBAULT      CLOUDY    59  46  63 N8        29.72S
OWATONNA       CLOUDY    59  46  63 N8        29.70F
WASECA         PTSUNNY   59  46  63 CALM      29.72F
ALBERT LEA     SUNNY     63  46  55 NE5       29.69F
$$
MNZ078>079-086>088-094>096-242200-
   Southeast Minnesota

CITY           SKY/WX    TMP DP  RH WIND       PRES   REMARKS
ROCHESTER      CLOUDY    58  47  66 N10       29.70F
RED WING       CLOUDY    61  43  51 N3        29.69F
STANTON        CLOUDY    61  47  58 N10       29.69F
DODGE CENTER   CLOUDY    57  46  67 N8        29.70S
WINONA         CLOUDY    61  45  55 NE6       29.68S
AUSTIN         CLOUDY    61  46  59 NE6       29.69S
PRESTON        CLOUDY    60  47  60 N10G16    29.68S
$$
ABBREVIATIONS USED IN REMARKS
   TC - TEMPERATURES IN CELSIUS
  WCI - WIND CHILL INDEX
   HX - HEAT INDEX
  VSB - VISIBILITY
$$



USA.gov is the U.S. government's official web portal to all federal, state and local government web resources and services.